This is the latest recevied weather packets stored in our database for station/object EA1IQY-10. If no packets are shown the sender has not sent any weather packets the latest 10 day(s).
| Time | Temp. | Humidity | Pressure | Rain* | Wind** | Luminosity | Snow |
|---|---|---|---|---|---|---|---|
| 1777603033 | 12.22° C | 100% | 1007.8 hPa | - | - | - | - |
| 1777602133 | 15.56° C | 100% | 1007.8 hPa | - | - | - | - |
| 1777601233 | 15.56° C | 100% | 1008 hPa | - | - | - | - |
| 1777600333 | 13.33° C | 100% | 1007.9 hPa | - | - | - | - |
| 1777599433 | 12.22° C | 100% | 1008.3 hPa | - | - | - | - |
| 1777598533 | 18.33° C | 100% | 1008.4 hPa | - | - | - | - |
| 1777597633 | 18.89° C | 100% | 1008.6 hPa | - | - | - | - |
| 1777596732 | 15° C | 100% | 1008.5 hPa | - | - | - | - |
| 1777595832 | 18.89° C | 100% | 1008.4 hPa | - | - | - | - |
| 1777594932 | 20° C | 100% | 1008.5 hPa | - | - | - | - |
| 1777594032 | 17.78° C | 100% | 1008.5 hPa | - | - | - | - |
| 1777593132 | 19.44° C | 100% | 1008.5 hPa | - | - | - | - |
| 1777592232 | 14.44° C | 100% | 1008.5 hPa | - | - | - | - |
| 1777591332 | 20° C | 100% | 1008.5 hPa | - | - | - | - |
| 1777590432 | 16.67° C | 100% | 1008.5 hPa | - | - | - | - |
| 1777589531 | 16.67° C | 100% | 1008.3 hPa | - | - | - | - |
| 1777588631 | 20° C | 100% | 1008.2 hPa | - | - | - | - |
| 1777587731 | 19.44° C | 100% | 1008.2 hPa | - | - | - | - |
| 1777586831 | 20° C | 100% | 1008.2 hPa | - | - | - | - |
| 1777585931 | 17.22° C | 100% | 1008.2 hPa | - | - | - | - |
| 1777585031 | 16.67° C | 100% | 1008.2 hPa | - | - | - | - |
| 1777584131 | 20° C | 100% | 1008.1 hPa | - | - | - | - |
| 1777583230 | 19.44° C | 100% | 1008.1 hPa | - | - | - | - |
| 1777582330 | 17.22° C | 100% | 1008.1 hPa | - | - | - | - |
| 1777581430 | 19.44° C | 100% | 1007.9 hPa | - | - | - | - |
* Rain since midnight (hover to see other rain measurements)
** Current wind speed in m/s (hover to see current wind gust speed)